[[{"header":{"parameterUnit":"m.s-1","parameterCategory":1,"la1":30.2991,"la2":30.254,"lo1":-89.0895,"lo2":-89.0444,"dy":0.0017,"dx":0.0017,"nx":28,"ny":28,"refTime":"2025-08-27T21:00:00:Z","depth":0,"parameterNumber":2,"parameterNumberName":"U-component_of_WINDS"},"data":[0,0,0,0,0,0,0,0,0,0,0,0,0,0,0,0,0,0,0,0,0,0,0,0,0,0,0,0,0,0,0,0,0,0,0,0,0,0,0,0,0,0,0,0,0,0,0,0,0,0,0,0,0,0,0,0,0,0,0.6937,0.6936,0,0.6897,0.6896,0.6896,0.6855,0.6854,0.6854,0.6853,0.6812,0.6812,0.6811,0,0,0,0,0,0,0,0,0,0,0,0,0,0.6977,0.6976,0.6937,0.6936,0.6936,0.6897,0.6896,0.6896,0.6855,0.6854,0.6853,0.6853,0.6813,0.6812,0.6811,0,0,0,0,0,0,0,0,0,0,0,0,0,0.695,0.6976,0.6937,0.6911,0.6908,0.6897,0.6896,0.6896,0.6855,0.6854,0.6853,0.6852,0.6813,0.6812,0.6811,0.6823,0,0,0.6809,0.6808,0,0,0,0,0,0,0,0,0.6952,0.6949,0.6915,0.6912,0.6909,0.688,0.6895,0.6871,0.6855,0.6875,0.6853,0.6852,0.6836,0.6833,0.6827,0.6821,0.6819,0.6808,0.6808,0.6808,0.6807,0,0,0,0,0,0,0,0.6954,0.695,0.6921,0.6915,0.6911,0.6901,0.6896,0.6891,0.6861,0.6873,0.687,0.6866,0.6834,0.6828,0.6826,0.6819,0.6809,0.6808,0.6807,0.6807,0.6818,0.6818,0,0,0,0,0,0,0.696,0.6952,0.6922,0.692,0.6929,0.6901,0.6895,0.689,0.686,0.6855,0.6867,0.6864,0.683,0.6827,0.6824,0.6834,0.6808,0.6807,0.6806,0.6817,0.6818,0.6819,0,0,0,0,0,0,0.6961,0.6957,0.6924,0.6935,0.693,0.6901,0.6895,0.689,0.6884,0.6856,0.685,0.6866,0.6829,0.6825,0.6823,0.6832,0.6806,0.6806,0.6816,0.6817,0.6818,0.6855,0,0,0,0,0,0,0.6962,0.6958,0.6963,0.6936,0.693,0.6924,0.6896,0.689,0.6883,0.6879,0.6854,0.6849,0.6828,0.6824,0.6822,0.683,0.6805,0.6815,0.6816,0.6818,0.6853,0.6857,0.6861,0,0,0,0,0,0.6964,0.6975,0.6963,0.696,0.6935,0.6924,0.6921,0.6897,0.6884,0.6887,0.6869,0.685,0.6832,0.6824,0.6822,0.683,0.6814,0.6816,0.6818,0.6851,0.6856,0.6861,0,0,0,0,0,0,0.7004,0.6971,0.6957,0.6961,0.6946,0.6917,0.6922,0.6904,0.6892,0.6889,0.686,0.6855,0.6855,0.6842,0.6835,0.6838,0.682,0.6821,0.6846,0.6851,0.6856,0.6858,0.6804,0,0,0,0,0,0.7014,0.7008,0.698,0.6985,0.6978,0.6951,0.6946,0.6929,0.6912,0.6905,0.6887,0.6871,0.6861,0.6856,0.6846,0.6851,0.6844,0.6855,0.686,0.6863,0.6864,0.6863,0.6867,0.6824,0.6824,0.6824,0,0,0.7033,0.7014,0.7013,0.6993,0.6979,0.6973,0.6946,0.6942,0.6937,0.6905,0.69,0.6886,0.6867,0.6867,0.6867,0.6857,0.6874,0.6865,0.6868,0.6867,0.6866,0.687,0.6873,0.6825,0.6825,0.6825,0,0,0.7065,0.7051,0.7053,0.704,0.7019,0.7001,0.7001,0.6975,0.6964,0.696,0.6934,0.6928,0.6914,0.69,0.6891,0.6916,0.6897,0.6914,0.6935,0.6935,0.6938,0.6941,0.6948,0.6951,0.6915,0.6915,0.6915,0,0.7092,0.7082,0.7056,0.7053,0.7044,0.7014,0.7015,0.7003,0.6981,0.6975,0.6964,0.6943,0.6928,0.6924,0.693,0.6925,0.6923,0.6916,0.694,0.6942,0.6944,0.6951,0.6954,0.6917,0.6917,0.6917,0.6917,0,0.7115,0.7108,0.7112,0.709,0.7082,0.7081,0.7054,0.7049,0.7032,0.7015,0.701,0.699,0.6975,0.6973,0.6957,0.6966,0.696,0.6945,0.6926,0.6951,0.6956,0.6959,0.692,0.6919,0.6919,0.6918,0,0,0.7171,0.7134,0.7135,0.7124,0.7098,0.7093,0.709,0.7074,0.7069,0.7055,0.705,0.7037,0.7023,0.7013,0.6995,0.6995,0.7013,0.6979,0.6978,0.6984,0.7019,0.703,0.7033,0.7001,0.7001,0.7002,0.702,0,0.7197,0.7189,0.7165,0.7165,0.7157,0.7129,0.7126,0.7109,0.7093,0.7084,0.7066,0.7056,0.7038,0.7032,0.7031,0.7011,0.7019,0.701,0.6995,0.6995,0.6999,0.7036,0.7047,0.7066,0.7022,0.7023,0.7023,0,0.7226,0.7212,0.721,0.7183,0.7179,0.7177,0.716,0.7152,0.7132,0.712,0.7108,0.7088,0.7082,0.7065,0.7055,0.7049,0.7042,0.7031,0.7032,0.7028,0.7009,0.7032,0.7071,0.7074,0.7026,0.7026,0.7026,0,0.7264,0.7245,0.7241,0.7233,0.7202,0.72,0.7187,0.7167,0.7158,0.7143,0.7137,0.7122,0.7113,0.7102,0.7077,0.7068,0.707,0.7051,0.7058,0.7059,0.7059,0.7059,0.7096,0.7057,0.7057,0.7057,0.7057,0,0.7294,0.7294,0.7258,0.7255,0.7254,0.7226,0.7225,0.7209,0.7191,0.7184,0.7159,0.7153,0.7122,0.7112,0.7093,0.7087,0.7084,0.7073,0.7067,0.7074,0.7075,0.7068,0.7065,0.7058,0.7058,0.7058,0.7057,0,0.7337,0.7313,0.7306,0.7277,0.7269,0.7269,0.7244,0.724,0.7221,0.7213,0.7209,0.7181,0.7167,0.7142,0.7123,0.711,0.7107,0.7099,0.7113,0.711,0.7117,0.7116,0.715,0.7152,0.7114,0.7114,0.7114,0,0.7357,0.7355,0.7326,0.7319,0.7307,0.7297,0.7288,0.7261,0.7252,0.7229,0.7227,0.7212,0.7198,0.7178,0.7155,0.7139,0.713,0.7142,0.7127,0.7133,0.7127,0.7127,0.7126,0.7146,0.7146,0.7147,0.7147,0,0.7394,0.7382,0.737,0.7353,0.7343,0.7328,0.7313,0.7309,0.7277,0.7269,0.7255,0.7244,0.7223,0.7208,0.7189,0.7174,0.7155,0.7152,0.7152,0.7158,0.7166,0.716,0.7121,0.7151,0.7151,0.715,0.715,0.715,0.7424,0.7421,0.7399,0.7386,0.7371,0.7357,0.7351,0.7331,0.7319,0.73,0.7285,0.7271,0.725,0.7222,0.7209,0.7197,0.7188,0.719,0.7189,0.719,0.7191,0.7169,0.7194,0.7194,0.7194,0.7194,0.7193,0,0.7458,0.7443,0.7431,0.7409,0.7399,0.7382,0.7363,0.7355,0.7344,0.7325,0.7312,0.7295,0.728,0.7255,0.7238,0.7233,0.7224,0.7229,0.7228,0.7225,0.7202,0.7202,0.7237,0.7237,0.7237,0.7237,0.7237,0.7237,0.7475,0.7468,0.7453,0.7438,0.7422,0.7409,0.74,0.7386,0.7371,0.7353,0.734,0.7324,0.7302,0.7283,0.7267,0.7261,0.7254,0.7263,0.7253,0.7231,0.7227,0.7223,0.7223,0.7262,0.7262,0.7277,0.7277,0.7277]},{"header":{"parameterUnit":"m.s-1","parameterCategory":1,"la1":30.2991,"la2":30.254,"lo1":-89.0895,"lo2":-89.0444,"dy":0.0017,"dx":0.0017,"nx":28,"ny":28,"refTime":"2025-08-27T21:00:00:Z","depth":0,"parameterNumber":3,"parameterNumberName":"V-component_of_WINDS"},"data":[0,0,0,0,0,0,0,0,0,0,0,0,0,0,0,0,0,0,0,0,0,0,0,0,0,0,0,0,0,0,0,0,0,0,0,0,0,0,0,0,0,0,0,0,0,0,0,0,0,0,0,0,0,0,0,0,0,0,3.5541,3.554,0,3.5502,3.5501,3.5501,3.54,3.5398,3.5396,3.5394,3.5354,3.5355,3.5356,0,0,0,0,0,0,0,0,0,0,0,0,0,3.5527,3.5528,3.5541,3.554,3.554,3.5502,3.5501,3.5501,3.54,3.5398,3.5395,3.5393,3.5353,3.5355,3.5356,0,0,0,0,0,0,0,0,0,0,0,0,0,3.5515,3.5528,3.5541,3.5485,3.548,3.5502,3.5501,3.5501,3.5401,3.5398,3.5394,3.5391,3.5353,3.5354,3.5356,3.5429,0,0,3.536,3.5361,0,0,0,0,0,0,0,0,3.5516,3.5516,3.5494,3.5489,3.5483,3.5452,3.5482,3.5477,3.5402,3.5431,3.5394,3.539,3.5389,3.5387,3.5387,3.5427,3.5425,3.536,3.5361,3.5362,3.5362,0,0,0,0,0,0,0,3.5517,3.5517,3.5525,3.5494,3.5487,3.5462,3.5456,3.548,3.5429,3.5428,3.5421,3.5417,3.5386,3.5386,3.5385,3.5425,3.536,3.5361,3.5362,3.5363,3.5519,3.5522,0,0,0,0,0,0,3.5526,3.5518,3.5527,3.5524,3.5492,3.5465,3.5459,3.5466,3.5428,3.5419,3.542,3.5413,3.5385,3.5384,3.5384,3.5464,3.5362,3.5363,3.5364,3.5516,3.552,3.5523,0,0,0,0,0,0,3.5526,3.5528,3.5528,3.5519,3.5517,3.5468,3.5477,3.5466,3.5467,3.5422,3.5412,3.543,3.5383,3.5382,3.5418,3.5461,3.5364,3.5365,3.5512,3.5517,3.5522,3.5627,0,0,0,0,0,0,3.5526,3.5528,3.5556,3.5521,3.5518,3.5564,3.5479,3.5468,3.5469,3.5459,3.5429,3.5421,3.538,3.5416,3.5419,3.5461,3.5366,3.5508,3.5514,3.552,3.5619,3.5635,3.5648,0,0,0,0,0,3.5526,3.5588,3.5558,3.556,3.5552,3.5566,3.5565,3.5517,3.5473,3.55,3.5471,3.5422,3.5457,3.5421,3.5423,3.5467,3.5505,3.5512,3.5519,3.5613,3.5632,3.5648,0,0,0,0,0,0,3.5631,3.5582,3.5549,3.5601,3.5588,3.5549,3.5582,3.5539,3.5538,3.5529,3.547,3.5464,3.5507,3.5491,3.5451,3.5534,3.5472,3.5481,3.5543,3.556,3.5575,3.5577,3.5367,0,0,0,0,0,3.566,3.5676,3.5633,3.5683,3.5679,3.5632,3.5636,3.56,3.5585,3.5579,3.5552,3.5539,3.5546,3.5553,3.5558,3.5617,3.5608,3.5648,3.5663,3.5675,3.5682,3.5709,3.5726,3.5548,3.5548,3.5548,0,0,3.572,3.5696,3.571,3.5704,3.5689,3.5706,3.5628,3.565,3.5661,3.5582,3.5613,3.5594,3.5575,3.5622,3.5642,3.561,3.5729,3.5684,3.5694,3.5695,3.5719,3.5736,3.5751,3.5553,3.5552,3.5551,0,0,3.5838,3.5822,3.5861,3.5848,3.5828,3.5796,3.5805,3.5772,3.5756,3.5786,3.5726,3.5739,3.5755,3.5742,3.5739,3.585,3.5804,3.5854,3.5929,3.5956,3.597,3.5982,3.6019,3.6034,3.5862,3.5862,3.5862,0,3.5915,3.5939,3.5887,3.5911,3.5909,3.5838,3.5876,3.5866,3.5849,3.5849,3.5814,3.5829,3.5812,3.5854,3.5881,3.5881,3.5888,3.5856,3.5972,3.5984,3.5994,3.6029,3.6044,3.5868,3.5867,3.5867,3.5866,0,3.6033,3.605,3.6084,3.6068,3.607,3.6102,3.6053,3.6062,3.6026,3.5997,3.6028,3.6004,3.6002,3.601,3.5975,3.6046,3.6027,3.5983,3.592,3.6018,3.605,3.6063,3.5876,3.5874,3.5873,3.5871,0,0,3.6215,3.6169,3.6182,3.6172,3.6144,3.6156,3.6183,3.618,3.6187,3.6178,3.6198,3.6212,3.617,3.6166,3.6129,3.6154,3.624,3.6106,3.6105,3.613,3.6314,3.6345,3.6362,3.621,3.6212,3.6214,3.6315,0,3.6324,3.6368,3.6322,3.6375,3.6388,3.6321,3.6344,3.6329,3.6303,3.6311,3.6282,3.6291,3.6237,3.6234,3.6255,3.6225,3.6276,3.6218,3.6226,3.6227,3.6231,3.6379,3.6412,3.6508,3.6327,3.6329,3.6331,0,3.6457,3.6452,3.6506,3.6472,3.6476,3.6498,3.649,3.6499,3.648,3.6459,3.6453,3.6409,3.6432,3.6372,3.6402,3.6364,3.6364,3.635,3.6353,3.635,3.6283,3.6377,3.6538,3.6551,3.635,3.6348,3.6347,0,3.6581,3.6588,3.662,3.6615,3.6577,3.6593,3.6578,3.6556,3.6556,3.655,3.6549,3.6546,3.6543,3.6541,3.6496,3.6457,3.6531,3.6468,3.6513,3.6514,3.653,3.6529,3.6691,3.6535,3.6535,3.6535,3.6534,0,3.6705,3.6741,3.6675,3.6695,3.6732,3.6678,3.6716,3.6694,3.6674,3.6688,3.663,3.6644,3.6585,3.6592,3.6558,3.6586,3.6586,3.6569,3.6559,3.6573,3.6575,3.6571,3.6562,3.6538,3.6538,3.6537,3.6536,0,3.6849,3.6807,3.6838,3.6799,3.6789,3.6818,3.6784,3.68,3.6771,3.6788,3.679,3.6743,3.6748,3.6703,3.6701,3.6677,3.6722,3.6701,3.6728,3.6721,3.6767,3.6762,3.693,3.6948,3.6784,3.6785,3.6787,0,3.6931,3.6956,3.6919,3.6924,3.6911,3.692,3.692,3.6867,3.6869,3.6848,3.6866,3.6867,3.6864,3.6876,3.6841,3.6838,3.6816,3.6875,3.6815,3.6827,3.6813,3.6812,3.6813,3.6887,3.6889,3.689,3.6892,0,3.7078,3.7056,3.7057,3.7052,3.7053,3.7046,3.7035,3.7042,3.6985,3.699,3.6994,3.6992,3.6989,3.6989,3.698,3.6963,3.6917,3.6911,3.6921,3.6934,3.6947,3.6938,3.6759,3.6907,3.6905,3.6904,3.6904,3.6903,3.7191,3.7209,3.7186,3.7189,3.7175,3.7166,3.7178,3.715,3.7152,3.7145,3.7114,3.7124,3.7102,3.7083,3.7071,3.7077,3.7048,3.7063,3.7066,3.707,3.7078,3.6949,3.7075,3.7075,3.7074,3.7074,3.7074,0,3.7333,3.7314,3.7318,3.7304,3.7306,3.7264,3.7249,3.7253,3.7263,3.7246,3.7244,3.7248,3.7248,3.7213,3.7208,3.722,3.7199,3.722,3.7218,3.7214,3.7105,3.7096,3.7237,3.7237,3.7237,3.7237,3.7237,3.7237,3.7407,3.7435,3.741,3.743,3.741,3.7419,3.7414,3.7404,3.739,3.7397,3.7397,3.7374,3.7349,3.7342,3.734,3.7329,3.7329,3.7357,3.734,3.7238,3.7222,3.7207,3.7198,3.7358,3.7358,3.7447,3.7448,3.7449]}]]